User: anonymous   Login
Location: Unspecified
(0.0000°N, 0.0000°E)
Time: 12:17:42
(UTC+00:00)
Language:

SJ-6E - Orbit

View from above orbital plane
View from above orbital plane
View from above satellite
View from above satellite

Ground track
Ground track

The orbit data is extracted from the following two-line orbital elements,

1 33408U 08053A   18289.17855082  .00000547  00000-0  56695-4 0  9999
2 33408  97.6933 264.9078 0018872  57.3179 302.9845 14.93820546543332
Epoch (UTC): 16 October 2018 04:17:06
Eccentricity: 0.0018872
inclination: 97.6933°
perigee height: 573 km
apogee height: 599 km
right ascension of ascending node: 264.9078°
argument of perigee: 57.3179°
revolutions per day: 14.93820546
mean anomaly at epoch: 302.9845°
orbit number at epoch: 54333

The dashed part of the orbit path shows where the satellite is in the earth's shadow,  

DLR